{"data":{"norad_id":52494,"epoch":"2026-09-19T22:17:06.895392Z","epoch_age_seconds":112652,"freshness":"FRESH","line1":"1 52494U 22049AV  26262.92855203  .00000791  00000+0  34549-4 0  9998","line2":"2 52494  53.1584 240.7352 0001433  84.8304 275.2862 15.34384014241948","mean_motion":15.34384014,"eccentricity":0.0001433,"inclination_deg":53.1584,"raan_deg":240.7352,"arg_perigee_deg":84.8304,"mean_anomaly_deg":275.2862,"bstar":3.4549e-5,"rev_number":24194,"period_min":93.848735835435,"perigee_km":461.77045516532,"apogee_km":463.73105359572,"semimajor_km":6840.8877543805,"source":"CELESTRAK","updated_at":"2026-09-20T09:00:40.056188Z"}}